Regional Weather Roundup
Issued by NWS

Home | Current Version | Previous Version | Text Only | Print | Product List | Glossary On
Versions: 1 2 3 4 5 6 7 8 9 10 11 12 13 14 15 16 17 18 19 20 21 22 23 24 25 26 27 28 29 30 31 32 33 34 35 36 37 38 39 40 41 42 43 44 45 46 47 48 49 50
000
ASUS43 KBIS 050510
RWRND

NORTH DAKOTA REGIONAL WEATHER ROUNDUP
NATIONAL WEATHER SERVICE BISMARCK ND
1200 AM CDT SUN JUL 05 2015

NOTE: "FAIR" INDICATES FEW OR NO CLOUDS BELOW 12,000 FEET WITH NO
SIGNIFICANT WEATHER AND/OR OBSTRUCTIONS TO VISIBILITY.


NDZ001>003-009>011-017-050600-
NORTHWEST NORTH DAKOTA

CITY           SKY/WX    TMP DP  RH WIND       PRES   REMARKS
WILLISTON      CLEAR     71  62  73 N14       29.78F
MINOT          CLEAR     66  62  87 N10       29.74R
MINOT AFB      CLEAR     65  65 100 N10       29.74R
$$

NDZ018>021-031>035-040>046-050600-
SOUTHWEST NORTH DAKOTA

CITY           SKY/WX    TMP DP  RH WIND       PRES   REMARKS
BISMARCK       CLEAR     76  69  79 S6        29.71F
DICKINSON      CLEAR     68  64  87 NE6       29.77R FOG
GARRISON         N/A     67  63  87 N3        29.73F
HETTINGER ARPT PTCLDY    66  63  90 CALM      29.79R FOG
$$

NDZ004>008-012>016-024-026-027-054-050600-
NORTHEAST NORTH DAKOTA

CITY           SKY/WX    TMP DP  RH WIND       PRES   REMARKS
GRAND FORKS    CLOUDY    75  67  76 S10       29.71R
GRND FRKS AFB  CLOUDY    76  68  75 S9        29.71S
DEVILS LAKE    CLOUDY    68  57  68 E10       29.75R
$$

NDZ022-023-025-028>030-036>039-047>053-050600-
SOUTHEAST NORTH DAKOTA

CITY           SKY/WX    TMP DP  RH WIND       PRES   REMARKS
FARGO          MOCLDY    75  65  70 S14       29.75F
JAMESTOWN      PTCLDY    73  67  81 S8        29.74F
$$



USA.gov is the U.S. government's official web portal to all federal, state and local government web resources and services.